Tracking 29892 objects as of 21-Nov-2024
HD Live streaming from Space Station
objects crossing your sky now

STARLINK-2001

Track STARLINK-2001 now!
10-day predictions
STARLINK-2001 is classified as:


NORAD ID: 47596
Int'l Code: 2021-009BA
Perigee: 552.1 km
Apogee: 556.6 km
Inclination: 53.1 °
Period: 95.6 minutes
Semi major axis: 6925 km
RCS: Unknown
Launch date: February 4, 2021
Source: United States (US)
Launch site: AIR FORCE EASTERN TEST RANGE (AFETR)
Your satellite tracking list
Your tracking list is empty




NASA's NSSDC Master Catalog

Two Line Element Set (TLE):
1 47596U 21009BA  24326.11750567 -.00001737  00000-0 -97690-4 0  9997
2 47596  53.0513   7.5673 0003307  92.0842 268.0526 15.06399267209734
Source of the keplerian elements: AFSPC